{"data":{"norad_id":43929,"intl_designator":"2019-002H","name":"IRIDIUM 171","alt_names":[],"object_type":"PAYLOAD","status":"ACTIVE","operator":null,"country":"US","launch_date":"2019-01-11","launch_site_code":"AFWTR","launch_vehicle":null,"mission":null,"orbit_class":"UNKNOWN","rcs_meters":null,"size_class":null,"mass_kg":null,"dimensions":null,"purposes":["comms"],"wikipedia_slug":null,"has_3d_model":false,"image_url":null,"decayed_at":null,"tle_current":{"epoch":"2026-05-25T03:18:18.869760Z","epoch_age_seconds":66428,"freshness":"FRESH","line1":"1 43929U 19002H   26145.13771840  .00000085  00000+0  23178-4 0  9995","line2":"2 43929  86.3993   3.5121 0002117  83.3522 276.7915 14.34218185385654","mean_motion":14.34218185,"eccentricity":0.0002117,"inclination_deg":86.3993,"raan_deg":3.5121,"arg_perigee_deg":83.3522,"mean_anomaly_deg":276.7915,"bstar":2.3178e-5,"rev_number":38565,"period_min":100.40313357204,"perigee_km":776.15082401124,"apogee_km":779.18059087758,"semimajor_km":7155.8027074444,"source":"CELESTRAK","updated_at":"2026-05-25T13:38:14.815460Z"}}}